Location: Unspecified
(0.0000°N, 0.0000°E)
Time: 06:18:20
(UTC+00:00)

Eole - Pass Details

Date: 22 May 2026
Orbit: 620 x 764 km, 50.1° (Epoch: 8 June)

Event Time Altitude Azimuth Distance (km) Brightness Sun altitude
Rises 20:47:11 0° 244° (WSW) 3,081 10.5 -39.4°
Reaches altitude 10° 20:50:11 10° 261° (W) 2,131 9.8 -40.0°
Enters shadow 20:50:12 10° 261° (W) 2,129 9.8 -40.0°
